Year,Month,Day,Hour,Minute,Value (Times are PST for insolation in W/m^2)
2010,02,01,00,00,0.00
2010,02,01,00,01,0.00
2010,02,01,00,02,0.00
2010,02,01,00,03,0.00
2010,02,01,00,04,0.00
2010,02,01,00,05,0.00
2010,02,01,00,06,0.00
2010,02,01,00,07,0.00
2010,02,01,00,08,0.00
2010,02,01,00,09,0.00
2010,02,01,00,10,0.00
2010,02,01,00,11,0.00
2010,02,01,00,12,0.00
2010,02,01,00,13,0.00
2010,02,01,00,14,0.00
2010,02,01,00,15,0.00
2010,02,01,00,16,0.00
2010,02,01,00,17,0.00
2010,02,01,00,18,0.00
2010,02,01,00,19,0.00
2010,02,01,00,20,0.00
2010,02,01,00,21,0.00
2010,02,01,00,22,0.00
2010,02,01,00,23,0.00
2010,02,01,00,24,0.00
2010,02,01,00,25,0.00
2010,02,01,00,26,0.00
2010,02,01,00,27,0.00
2010,02,01,00,28,0.00
2010,02,01,00,29,0.00
2010,02,01,00,30,0.00
2010,02,01,00,31,0.00
2010,02,01,00,32,0.00
2010,02,01,00,33,0.00
2010,02,01,00,34,0.00
2010,02,01,00,35,0.00
2010,02,01,00,36,0.00
2010,02,01,00,37,0.00
2010,02,01,00,38,0.00
2010,02,01,00,39,0.00
2010,02,01,00,40,0.00
2010,02,01,00,41,0.00
2010,02,01,00,42,0.00
2010,02,01,00,43,0.00
2010,02,01,00,44,0.00
2010,02,01,00,45,0.00
2010,02,01,00,46,0.00
2010,02,01,00,47,0.00
2010,02,01,00,48,0.00
2010,02,01,00,49,0.00
2010,02,01,00,50,0.00
2010,02,01,00,51,0.00
2010,02,01,00,52,0.00
2010,02,01,00,53,0.00
2010,02,01,00,54,0.00
2010,02,01,00,55,0.00
2010,02,01,00,56,0.00
2010,02,01,00,57,0.00
2010,02,01,00,58,0.00
2010,02,01,00,59,0.00
2010,02,01,01,00,0.00
2010,02,01,01,01,0.00
2010,02,01,01,02,0.00
2010,02,01,01,03,0.00
2010,02,01,01,04,0.00
2010,02,01,01,05,0.00
2010,02,01,01,06,0.00
2010,02,01,01,07,0.00
2010,02,01,01,08,0.00
2010,02,01,01,09,0.00
2010,02,01,01,10,0.00
2010,02,01,01,11,0.00
2010,02,01,01,12,0.00
2010,02,01,01,13,0.00
2010,02,01,01,14,0.00
2010,02,01,01,15,0.00
2010,02,01,01,16,0.00
2010,02,01,01,17,0.00
2010,02,01,01,18,0.00
2010,02,01,01,19,0.00
2010,02,01,01,20,0.00
2010,02,01,01,21,0.00
2010,02,01,01,22,0.00
2010,02,01,01,23,0.00
2010,02,01,01,24,0.00
2010,02,01,01,25,0.00
2010,02,01,01,26,0.00
2010,02,01,01,27,0.00
2010,02,01,01,28,0.00
2010,02,01,01,29,0.00
2010,02,01,01,30,0.00
2010,02,01,01,31,0.00
2010,02,01,01,32,0.00
2010,02,01,01,33,0.00
2010,02,01,01,34,0.00
2010,02,01,01,35,0.00
2010,02,01,01,36,0.00
2010,02,01,01,37,0.00
2010,02,01,01,38,0.00
2010,02,01,01,39,0.00
2010,02,01,01,40,0.00
2010,02,01,01,41,0.00
2010,02,01,01,42,0.00
2010,02,01,01,43,0.00
2010,02,01,01,44,0.00
2010,02,01,01,45,0.00
2010,02,01,01,46,0.00
2010,02,01,01,47,0.00
2010,02,01,01,48,0.00
2010,02,01,01,49,0.00
2010,02,01,01,50,0.00
2010,02,01,01,51,0.00
2010,02,01,01,52,0.00
2010,02,01,01,53,0.00
2010,02,01,01,54,0.00
2010,02,01,01,55,0.00
2010,02,01,01,56,0.00
2010,02,01,01,57,0.00
2010,02,01,01,58,0.00
2010,02,01,01,59,0.00
2010,02,01,02,00,0.00
2010,02,01,02,01,0.00
2010,02,01,02,02,0.00
2010,02,01,02,03,0.00
2010,02,01,02,04,0.00
2010,02,01,02,05,0.00
2010,02,01,02,06,0.00
2010,02,01,02,07,0.00
2010,02,01,02,08,0.00
2010,02,01,02,09,0.00
2010,02,01,02,10,0.00
2010,02,01,02,11,0.00
2010,02,01,02,12,0.00
2010,02,01,02,13,0.00
2010,02,01,02,14,0.00
2010,02,01,02,15,0.00
2010,02,01,02,16,0.00
2010,02,01,02,17,0.00
2010,02,01,02,18,0.00
2010,02,01,02,19,0.00
2010,02,01,02,20,0.00
2010,02,01,02,21,0.00
2010,02,01,02,22,0.00
2010,02,01,02,23,0.00
2010,02,01,02,24,0.00
2010,02,01,02,25,0.00
2010,02,01,02,26,0.00
2010,02,01,02,27,0.00
2010,02,01,02,28,0.00
2010,02,01,02,29,0.00
2010,02,01,02,30,0.00
2010,02,01,02,31,0.00
2010,02,01,02,32,0.00
2010,02,01,02,33,0.00
2010,02,01,02,34,0.00
2010,02,01,02,35,0.00
2010,02,01,02,36,0.00
2010,02,01,02,37,0.00
2010,02,01,02,38,0.00
2010,02,01,02,39,0.00
2010,02,01,02,40,0.00
2010,02,01,02,41,0.00
2010,02,01,02,42,0.00
2010,02,01,02,43,0.00
2010,02,01,02,44,0.00
2010,02,01,02,45,0.00
2010,02,01,02,46,0.00
2010,02,01,02,47,0.00
2010,02,01,02,48,0.00
2010,02,01,02,49,0.00
2010,02,01,02,50,0.00
2010,02,01,02,51,0.00
2010,02,01,02,52,0.00
2010,02,01,02,53,0.00
2010,02,01,02,54,0.00
2010,02,01,02,55,0.00
2010,02,01,02,56,0.00
2010,02,01,02,57,0.00
2010,02,01,02,58,0.00
2010,02,01,02,59,0.00
2010,02,01,03,00,0.00
2010,02,01,03,01,0.00
2010,02,01,03,02,0.00
2010,02,01,03,03,0.00
2010,02,01,03,04,0.00
2010,02,01,03,05,0.00
2010,02,01,03,06,0.00
2010,02,01,03,07,0.00
2010,02,01,03,08,0.00
2010,02,01,03,09,0.00
2010,02,01,03,10,0.00
2010,02,01,03,11,0.00
2010,02,01,03,12,0.00
2010,02,01,03,13,0.00
2010,02,01,03,14,0.00
2010,02,01,03,15,0.00
2010,02,01,03,16,0.00
2010,02,01,03,17,0.00
2010,02,01,03,18,0.00
2010,02,01,03,19,0.00
2010,02,01,03,20,0.00
2010,02,01,03,21,0.00
2010,02,01,03,22,0.00
2010,02,01,03,23,0.00
2010,02,01,03,24,0.00
2010,02,01,03,25,0.00
2010,02,01,03,26,0.00
2010,02,01,03,27,0.00
2010,02,01,03,28,0.00
2010,02,01,03,29,0.00
2010,02,01,03,30,0.00
2010,02,01,03,31,0.00
2010,02,01,03,32,0.00
2010,02,01,03,33,0.00
2010,02,01,03,34,0.00
2010,02,01,03,35,0.00
2010,02,01,03,36,0.00
2010,02,01,03,37,0.00
2010,02,01,03,38,0.00
2010,02,01,03,39,0.00
2010,02,01,03,40,0.00
2010,02,01,03,41,0.00
2010,02,01,03,42,0.00
2010,02,01,03,43,0.00
2010,02,01,03,44,0.00
2010,02,01,03,45,0.00
2010,02,01,03,46,0.00
2010,02,01,03,47,0.00
2010,02,01,03,48,0.00
2010,02,01,03,49,0.00
2010,02,01,03,50,0.00
2010,02,01,03,51,0.00
2010,02,01,03,52,0.00
2010,02,01,03,53,0.00
2010,02,01,03,54,0.00
2010,02,01,03,55,0.00
2010,02,01,03,56,0.00
2010,02,01,03,57,0.00
2010,02,01,03,58,0.00
2010,02,01,03,59,0.00
2010,02,01,04,00,0.00
2010,02,01,04,01,0.00
2010,02,01,04,02,0.00
2010,02,01,04,03,0.00
2010,02,01,04,04,0.00
2010,02,01,04,05,0.00
2010,02,01,04,06,0.00
2010,02,01,04,07,0.00
2010,02,01,04,08,0.00
2010,02,01,04,09,0.00
2010,02,01,04,10,0.00
2010,02,01,04,11,0.00
2010,02,01,04,12,0.00
2010,02,01,04,13,0.00
2010,02,01,04,14,0.00
2010,02,01,04,15,0.00
2010,02,01,04,16,0.00
2010,02,01,04,17,0.00
2010,02,01,04,18,0.00
2010,02,01,04,19,0.00
2010,02,01,04,20,0.00
2010,02,01,04,21,0.00
2010,02,01,04,22,0.00
2010,02,01,04,23,0.00
2010,02,01,04,24,0.00
2010,02,01,04,25,0.00
2010,02,01,04,26,0.00
2010,02,01,04,27,0.00
2010,02,01,04,28,0.00
2010,02,01,04,29,0.00
2010,02,01,04,30,0.00
2010,02,01,04,31,0.00
2010,02,01,04,32,0.00
2010,02,01,04,33,0.00
2010,02,01,04,34,0.00
2010,02,01,04,35,0.00
2010,02,01,04,36,0.00
2010,02,01,04,37,0.00
2010,02,01,04,38,0.00
2010,02,01,04,39,0.00
2010,02,01,04,40,0.00
2010,02,01,04,41,0.00
2010,02,01,04,42,0.00
2010,02,01,04,43,0.00
2010,02,01,04,44,0.00
2010,02,01,04,45,0.00
2010,02,01,04,46,0.00
2010,02,01,04,47,0.00
2010,02,01,04,48,0.00
2010,02,01,04,49,0.00
2010,02,01,04,50,0.00
2010,02,01,04,51,0.00
2010,02,01,04,52,0.00
2010,02,01,04,53,0.00
2010,02,01,04,54,0.00
2010,02,01,04,55,0.00
2010,02,01,04,56,0.00
2010,02,01,04,57,0.00
2010,02,01,04,58,0.00
2010,02,01,04,59,0.00
2010,02,01,05,00,0.00
2010,02,01,05,01,0.00
2010,02,01,05,02,0.00
2010,02,01,05,03,0.00
2010,02,01,05,04,0.00
2010,02,01,05,05,0.00
2010,02,01,05,06,0.00
2010,02,01,05,07,0.00
2010,02,01,05,08,0.00
2010,02,01,05,09,0.00
2010,02,01,05,10,0.00
2010,02,01,05,11,0.00
2010,02,01,05,12,0.00
2010,02,01,05,13,0.00
2010,02,01,05,14,0.00
2010,02,01,05,15,0.00
2010,02,01,05,16,0.00
2010,02,01,05,17,0.00
2010,02,01,05,18,0.00
2010,02,01,05,19,0.00
2010,02,01,05,20,0.00
2010,02,01,05,21,0.00
2010,02,01,05,22,0.00
2010,02,01,05,23,0.00
2010,02,01,05,24,0.00
2010,02,01,05,25,0.00
2010,02,01,05,26,0.00
2010,02,01,05,27,0.00
2010,02,01,05,28,0.00
2010,02,01,05,29,0.00
2010,02,01,05,30,0.00
2010,02,01,05,31,0.00
2010,02,01,05,32,0.00
2010,02,01,05,33,0.00
2010,02,01,05,34,0.00
2010,02,01,05,35,0.00
2010,02,01,05,36,0.00
2010,02,01,05,37,0.00
2010,02,01,05,38,0.00
2010,02,01,05,39,0.00
2010,02,01,05,40,0.00
2010,02,01,05,41,0.00
2010,02,01,05,42,0.00
2010,02,01,05,43,0.00
2010,02,01,05,44,0.00
2010,02,01,05,45,0.00
2010,02,01,05,46,0.00
2010,02,01,05,47,0.00
2010,02,01,05,48,0.00
2010,02,01,05,49,0.00
2010,02,01,05,50,0.00
2010,02,01,05,51,0.00
2010,02,01,05,52,0.00
2010,02,01,05,53,0.00
2010,02,01,05,54,0.00
2010,02,01,05,55,0.00
2010,02,01,05,56,0.00
2010,02,01,05,57,0.00
2010,02,01,05,58,0.00
2010,02,01,05,59,0.00
2010,02,01,06,00,0.00
2010,02,01,06,01,0.00
2010,02,01,06,02,0.00
2010,02,01,06,03,0.00
2010,02,01,06,04,0.00
2010,02,01,06,05,0.00
2010,02,01,06,06,0.00
2010,02,01,06,07,0.00
2010,02,01,06,08,0.00
2010,02,01,06,09,0.00
2010,02,01,06,10,0.00
2010,02,01,06,11,0.00
2010,02,01,06,12,0.00
2010,02,01,06,13,0.00
2010,02,01,06,14,0.00
2010,02,01,06,15,0.00
2010,02,01,06,16,0.00
2010,02,01,06,17,0.00
2010,02,01,06,18,0.00
2010,02,01,06,19,0.00
2010,02,01,06,20,0.00
2010,02,01,06,21,0.00
2010,02,01,06,22,0.00
2010,02,01,06,23,0.00
2010,02,01,06,24,0.00
2010,02,01,06,25,0.00
2010,02,01,06,26,0.00
2010,02,01,06,27,0.00
2010,02,01,06,28,0.00
2010,02,01,06,29,0.00
2010,02,01,06,30,0.00
2010,02,01,06,31,0.00
2010,02,01,06,32,0.00
2010,02,01,06,33,0.00
2010,02,01,06,34,0.00
2010,02,01,06,35,0.00
2010,02,01,06,36,0.00
2010,02,01,06,37,0.00
2010,02,01,06,38,0.00
2010,02,01,06,39,0.00
2010,02,01,06,40,0.00
2010,02,01,06,41,0.00
2010,02,01,06,42,0.00
2010,02,01,06,43,0.00
2010,02,01,06,44,0.00
2010,02,01,06,45,0.00
2010,02,01,06,46,0.00
2010,02,01,06,47,0.00
2010,02,01,06,48,0.00
2010,02,01,06,49,0.00
2010,02,01,06,50,0.00
2010,02,01,06,51,0.00
2010,02,01,06,52,0.00
2010,02,01,06,53,0.00
2010,02,01,06,54,0.00
2010,02,01,06,55,0.00
2010,02,01,06,56,0.00
2010,02,01,06,57,0.00
2010,02,01,06,58,0.00
2010,02,01,06,59,0.00
2010,02,01,07,00,0.00
2010,02,01,07,01,0.00
2010,02,01,07,02,0.00
2010,02,01,07,03,0.00
2010,02,01,07,04,0.00
2010,02,01,07,05,0.00
2010,02,01,07,06,0.00
2010,02,01,07,07,0.00
2010,02,01,07,08,0.00
2010,02,01,07,09,0.00
2010,02,01,07,10,0.00
2010,02,01,07,11,0.00
2010,02,01,07,12,0.00
2010,02,01,07,13,0.00
2010,02,01,07,14,0.00
2010,02,01,07,15,0.00
2010,02,01,07,16,0.00
2010,02,01,07,17,0.00
2010,02,01,07,18,0.00
2010,02,01,07,19,0.00
2010,02,01,07,20,0.00
2010,02,01,07,21,0.00
2010,02,01,07,22,0.00
2010,02,01,07,23,0.00
2010,02,01,07,24,0.00
2010,02,01,07,25,0.00
2010,02,01,07,26,0.00
2010,02,01,07,27,0.00
2010,02,01,07,28,0.00
2010,02,01,07,29,0.00
2010,02,01,07,30,0.00
2010,02,01,07,31,0.00
2010,02,01,07,32,0.00
2010,02,01,07,33,0.00
2010,02,01,07,34,0.00
2010,02,01,07,35,0.00
2010,02,01,07,36,0.00
2010,02,01,07,37,0.00
2010,02,01,07,38,0.00
2010,02,01,07,39,0.00
2010,02,01,07,40,0.00
2010,02,01,07,41,0.00
2010,02,01,07,42,0.00
2010,02,01,07,43,0.00
2010,02,01,07,44,0.00
2010,02,01,07,45,0.00
2010,02,01,07,46,0.00
2010,02,01,07,47,0.00
2010,02,01,07,48,0.00
2010,02,01,07,49,0.00
2010,02,01,07,50,0.00
2010,02,01,07,51,0.00
2010,02,01,07,52,0.00
2010,02,01,07,53,0.00
2010,02,01,07,54,0.00
2010,02,01,07,55,0.00
2010,02,01,07,56,0.00
2010,02,01,07,57,0.00
2010,02,01,07,58,0.00
2010,02,01,07,59,0.00
2010,02,01,08,00,3.00
2010,02,01,08,01,5.00
2010,02,01,08,02,5.00
2010,02,01,08,03,7.00
2010,02,01,08,04,7.00
2010,02,01,08,05,7.00
2010,02,01,08,06,7.00
2010,02,01,08,07,7.00
2010,02,01,08,08,8.30
2010,02,01,08,09,9.00
2010,02,01,08,10,10.90
2010,02,01,08,11,11.00
2010,02,01,08,12,11.30
2010,02,01,08,13,12.00
2010,02,01,08,14,12.00
2010,02,01,08,15,12.00
2010,02,01,08,16,12.00
2010,02,01,08,17,12.00
2010,02,01,08,18,12.00
2010,02,01,08,19,12.00
2010,02,01,08,20,12.00
2010,02,01,08,21,12.00
2010,02,01,08,22,12.00
2010,02,01,08,23,13.70
2010,02,01,08,24,14.00
2010,02,01,08,25,14.40
2010,02,01,08,26,16.00
2010,02,01,08,27,16.00
2010,02,01,08,28,16.00
2010,02,01,08,29,16.00
2010,02,01,08,30,16.00
2010,02,01,08,31,18.00
2010,02,01,08,32,18.00
2010,02,01,08,33,18.00
2010,02,01,08,34,18.00
2010,02,01,08,35,18.00
2010,02,01,08,36,18.70
2010,02,01,08,37,19.00
2010,02,01,08,38,19.00
2010,02,01,08,39,19.00
2010,02,01,08,40,19.60
2010,02,01,08,41,21.00
2010,02,01,08,42,21.00
2010,02,01,08,43,22.40
2010,02,01,08,44,23.00
2010,02,01,08,45,23.00
2010,02,01,08,46,23.30
2010,02,01,08,47,25.00
2010,02,01,08,48,25.00
2010,02,01,08,49,25.50
2010,02,01,08,50,26.00
2010,02,01,08,51,26.00
2010,02,01,08,52,26.20
2010,02,01,08,53,28.00
2010,02,01,08,54,28.00
2010,02,01,08,55,28.00
2010,02,01,08,56,28.00
2010,02,01,08,57,28.00
2010,02,01,08,58,28.00
2010,02,01,08,59,28.00
2010,02,01,09,00,28.00
2010,02,01,09,01,28.00
2010,02,01,09,02,28.00
2010,02,01,09,03,29.20
2010,02,01,09,04,30.00
2010,02,01,09,05,30.00
2010,02,01,09,06,31.90
2010,02,01,09,07,33.00
2010,02,01,09,08,33.00
2010,02,01,09,09,33.00
2010,02,01,09,10,33.00
2010,02,01,09,11,34.50
2010,02,01,09,12,35.00
2010,02,01,09,13,35.00
2010,02,01,09,14,35.00
2010,02,01,09,15,34.40
2010,02,01,09,16,33.00
2010,02,01,09,17,33.00
2010,02,01,09,18,33.00
2010,02,01,09,19,33.00
2010,02,01,09,20,33.00
2010,02,01,09,21,33.40
2010,02,01,09,22,35.00
2010,02,01,09,23,35.00
2010,02,01,09,24,33.80
2010,02,01,09,25,33.00
2010,02,01,09,26,33.00
2010,02,01,09,27,32.00
2010,02,01,09,28,31.60
2010,02,01,09,29,30.00
2010,02,01,09,30,30.00
2010,02,01,09,31,30.00
2010,02,01,09,32,28.50
2010,02,01,09,33,29.70
2010,02,01,09,34,30.00
2010,02,01,09,35,30.40
2010,02,01,09,36,31.30
2010,02,01,09,37,30.00
2010,02,01,09,38,30.00
2010,02,01,09,39,30.00
2010,02,01,09,40,31.70
2010,02,01,09,41,37.00
2010,02,01,09,42,36.60
2010,02,01,09,43,35.00
2010,02,01,09,44,35.00
2010,02,01,09,45,36.20
2010,02,01,09,46,38.40
2010,02,01,09,47,37.40
2010,02,01,09,48,35.50
2010,02,01,09,49,38.60
2010,02,01,09,50,35.60
2010,02,01,09,51,33.00
2010,02,01,09,52,35.40
2010,02,01,09,53,38.50
2010,02,01,09,54,41.50
2010,02,01,09,55,47.30
2010,02,01,09,56,53.00
2010,02,01,09,57,53.00
2010,02,01,09,58,53.50
2010,02,01,09,59,56.20
2010,02,01,10,00,59.50
2010,02,01,10,01,61.70
2010,02,01,10,02,62.10
2010,02,01,10,03,63.00
2010,02,01,10,04,63.00
2010,02,01,10,05,64.00
2010,02,01,10,06,67.30
2010,02,01,10,07,69.00
2010,02,01,10,08,74.90
2010,02,01,10,09,76.90
2010,02,01,10,10,75.60
2010,02,01,10,11,69.10
2010,02,01,10,12,66.10
2010,02,01,10,13,62.10
2010,02,01,10,14,61.40
2010,02,01,10,15,62.00
2010,02,01,10,16,64.50
2010,02,01,10,17,57.20
2010,02,01,10,18,54.70
2010,02,01,10,19,61.20
2010,02,01,10,20,72.70
2010,02,01,10,21,82.20
2010,02,01,10,22,89.90
2010,02,01,10,23,98.60
2010,02,01,10,24,111.30
2010,02,01,10,25,121.70
2010,02,01,10,26,126.40
2010,02,01,10,27,128.00
2010,02,01,10,28,129.50
2010,02,01,10,29,130.00
2010,02,01,10,30,128.10
2010,02,01,10,31,128.00
2010,02,01,10,32,128.00
2010,02,01,10,33,126.60
2010,02,01,10,34,125.00
2010,02,01,10,35,121.70
2010,02,01,10,36,122.60
2010,02,01,10,37,125.20
2010,02,01,10,38,131.00
2010,02,01,10,39,134.60
2010,02,01,10,40,134.00
2010,02,01,10,41,134.60
2010,02,01,10,42,136.40
2010,02,01,10,43,133.00
2010,02,01,10,44,129.90
2010,02,01,10,45,128.00
2010,02,01,10,46,125.60
2010,02,01,10,47,119.60
2010,02,01,10,48,119.20
2010,02,01,10,49,120.00
2010,02,01,10,50,120.00
2010,02,01,10,51,116.20
2010,02,01,10,52,116.00
2010,02,01,10,53,115.40
2010,02,01,10,54,112.70
2010,02,01,10,55,111.00
2010,02,01,10,56,112.50
2010,02,01,10,57,113.00
2010,02,01,10,58,113.10
2010,02,01,10,59,114.00
2010,02,01,11,00,115.20
2010,02,01,11,01,118.90
2010,02,01,11,02,120.60
2010,02,01,11,03,122.40
2010,02,01,11,04,123.00
2010,02,01,11,05,123.20
2010,02,01,11,06,125.00
2010,02,01,11,07,125.70
2010,02,01,11,08,127.00
2010,02,01,11,09,125.80
2010,02,01,11,10,125.00
2010,02,01,11,11,123.30
2010,02,01,11,12,125.00
2010,02,01,11,13,125.00
2010,02,01,11,14,124.40
2010,02,01,11,15,121.50
2010,02,01,11,16,120.00
2010,02,01,11,17,120.00
2010,02,01,11,18,118.30
2010,02,01,11,19,116.90
2010,02,01,11,20,106.40
2010,02,01,11,21,104.00
2010,02,01,11,22,104.00
2010,02,01,11,23,104.00
2010,02,01,11,24,104.00
2010,02,01,11,25,100.60
2010,02,01,11,26,95.00
2010,02,01,11,27,89.60
2010,02,01,11,28,88.00
2010,02,01,11,29,88.00
2010,02,01,11,30,91.00
2010,02,01,11,31,93.00
2010,02,01,11,32,91.30
2010,02,01,11,33,93.00
2010,02,01,11,34,93.00
2010,02,01,11,35,94.30
2010,02,01,11,36,97.40
2010,02,01,11,37,98.00
2010,02,01,11,38,95.90
2010,02,01,11,39,91.60
2010,02,01,11,40,90.10
2010,02,01,11,41,90.00
2010,02,01,11,42,90.00
2010,02,01,11,43,91.30
2010,02,01,11,44,93.00
2010,02,01,11,45,96.40
2010,02,01,11,46,103.10
2010,02,01,11,47,110.90
2010,02,01,11,48,114.40
2010,02,01,11,49,116.70
2010,02,01,11,50,118.90
2010,02,01,11,51,118.80
2010,02,01,11,52,116.60
2010,02,01,11,53,114.30
2010,02,01,11,54,110.90
2010,02,01,11,55,106.60
2010,02,01,11,56,103.30
2010,02,01,11,57,98.50
2010,02,01,11,58,95.80
2010,02,01,11,59,95.00
2010,02,01,12,00,95.00
2010,02,01,12,01,97.10
2010,02,01,12,02,97.80
2010,02,01,12,03,95.70
2010,02,01,12,04,90.60
2010,02,01,12,05,89.20
2010,02,01,12,06,97.00
2010,02,01,12,07,108.90
2010,02,01,12,08,114.00
2010,02,01,12,09,114.40
2010,02,01,12,10,116.70
2010,02,01,12,11,118.90
2010,02,01,12,12,121.80
2010,02,01,12,13,121.60
2010,02,01,12,14,118.40
2010,02,01,12,15,118.30
2010,02,01,12,16,120.80
2010,02,01,12,17,118.70
2010,02,01,12,18,116.00
2010,02,01,12,19,117.20
2010,02,01,12,20,118.00
2010,02,01,12,21,118.00
2010,02,01,12,22,120.00
2010,02,01,12,23,120.20
2010,02,01,12,24,121.00
2010,02,01,12,25,121.80
2010,02,01,12,26,123.00
2010,02,01,12,27,123.00
2010,02,01,12,28,123.00
2010,02,01,12,29,122.80
2010,02,01,12,30,120.20
2010,02,01,12,31,117.40
2010,02,01,12,32,115.10
2010,02,01,12,33,112.30
2010,02,01,12,34,108.10
2010,02,01,12,35,105.30
2010,02,01,12,36,101.80
2010,02,01,12,37,97.80
2010,02,01,12,38,96.30
2010,02,01,12,39,93.10
2010,02,01,12,40,90.40
2010,02,01,12,41,88.60
2010,02,01,12,42,86.30
2010,02,01,12,43,82.80
2010,02,01,12,44,81.00
2010,02,01,12,45,81.00
2010,02,01,12,46,81.90
2010,02,01,12,47,83.60
2010,02,01,12,48,84.00
2010,02,01,12,49,84.00
2010,02,01,12,50,86.00
2010,02,01,12,51,86.00
2010,02,01,12,52,86.00
2010,02,01,12,53,86.00
2010,02,01,12,54,86.00
2010,02,01,12,55,87.50
2010,02,01,12,56,88.00
2010,02,01,12,57,89.90
2010,02,01,12,58,91.40
2010,02,01,12,59,93.60
2010,02,01,13,00,96.00
2010,02,01,13,01,97.00
2010,02,01,13,02,97.80
2010,02,01,13,03,98.00
2010,02,01,13,04,100.00
2010,02,01,13,05,100.00
2010,02,01,13,06,100.60
2010,02,01,13,07,102.00
2010,02,01,13,08,102.00
2010,02,01,13,09,103.40
2010,02,01,13,10,104.00
2010,02,01,13,11,104.10
2010,02,01,13,12,105.00
2010,02,01,13,13,105.70
2010,02,01,13,14,108.90
2010,02,01,13,15,112.60
2010,02,01,13,16,116.80
2010,02,01,13,17,119.70
2010,02,01,13,18,123.10
2010,02,01,13,19,125.60
2010,02,01,13,20,128.70
2010,02,01,13,21,131.00
2010,02,01,13,22,133.20
2010,02,01,13,23,134.70
2010,02,01,13,24,134.20
2010,02,01,13,25,131.90
2010,02,01,13,26,129.20
2010,02,01,13,27,125.60
2010,02,01,13,28,121.70
2010,02,01,13,29,117.80
2010,02,01,13,30,113.90
2010,02,01,13,31,111.30
2010,02,01,13,32,109.00
2010,02,01,13,33,109.40
2010,02,01,13,34,111.70
2010,02,01,13,35,113.00
2010,02,01,13,36,113.60
2010,02,01,13,37,113.20
2010,02,01,13,38,113.00
2010,02,01,13,39,111.00
2010,02,01,13,40,111.00
2010,02,01,13,41,111.00
2010,02,01,13,42,111.00
2010,02,01,13,43,112.20
2010,02,01,13,44,113.70
2010,02,01,13,45,117.40
2010,02,01,13,46,121.30
2010,02,01,13,47,128.50
2010,02,01,13,48,135.00
2010,02,01,13,49,139.00
2010,02,01,13,50,141.60
2010,02,01,13,51,142.00
2010,02,01,13,52,141.20
2010,02,01,13,53,136.90
2010,02,01,13,54,133.20
2010,02,01,13,55,129.00
2010,02,01,13,56,125.00
2010,02,01,13,57,121.80
2010,02,01,13,58,121.00
2010,02,01,13,59,122.60
2010,02,01,14,00,125.10
2010,02,01,14,01,129.00
2010,02,01,14,02,132.90
2010,02,01,14,03,136.00
2010,02,01,14,04,139.40
2010,02,01,14,05,141.00
2010,02,01,14,06,137.60
2010,02,01,14,07,132.00
2010,02,01,14,08,125.20
2010,02,01,14,09,118.60
2010,02,01,14,10,116.00
2010,02,01,14,11,117.20
2010,02,01,14,12,119.40
2010,02,01,14,13,122.60
2010,02,01,14,14,122.80
2010,02,01,14,15,120.80
2010,02,01,14,16,118.50
2010,02,01,14,17,114.60
2010,02,01,14,18,110.70
2010,02,01,14,19,106.00
2010,02,01,14,20,104.20
2010,02,01,14,21,103.80
2010,02,01,14,22,102.00
2010,02,01,14,23,101.40
2010,02,01,14,24,100.00
2010,02,01,14,25,100.00
2010,02,01,14,26,100.00
2010,02,01,14,27,100.00
2010,02,01,14,28,102.20
2010,02,01,14,29,104.00
2010,02,01,14,30,105.00
2010,02,01,14,31,107.00
2010,02,01,14,32,108.20
2010,02,01,14,33,109.00
2010,02,01,14,34,109.00
2010,02,01,14,35,108.80
2010,02,01,14,36,106.40
2010,02,01,14,37,102.60
2010,02,01,14,38,99.00
2010,02,01,14,39,97.40
2010,02,01,14,40,94.10
2010,02,01,14,41,91.30
2010,02,01,14,42,90.00
2010,02,01,14,43,89.20
2010,02,01,14,44,86.00
2010,02,01,14,45,85.10
2010,02,01,14,46,84.00
2010,02,01,14,47,84.00
2010,02,01,14,48,84.00
2010,02,01,14,49,83.00
2010,02,01,14,50,83.00
2010,02,01,14,51,83.00
2010,02,01,14,52,83.00
2010,02,01,14,53,83.00
2010,02,01,14,54,81.60
2010,02,01,14,55,81.00
2010,02,01,14,56,82.80
2010,02,01,14,57,81.00
2010,02,01,14,58,80.40
2010,02,01,14,59,79.00
2010,02,01,15,00,77.80
2010,02,01,15,01,77.00
2010,02,01,15,02,76.20
2010,02,01,15,03,73.80
2010,02,01,15,04,71.50
2010,02,01,15,05,70.00
2010,02,01,15,06,70.00
2010,02,01,15,07,69.40
2010,02,01,15,08,67.60
2010,02,01,15,09,62.80
2010,02,01,15,10,57.60
2010,02,01,15,11,53.40
2010,02,01,15,12,50.40
2010,02,01,15,13,48.10
2010,02,01,15,14,45.20
2010,02,01,15,15,42.50
2010,02,01,15,16,42.00
2010,02,01,15,17,42.00
2010,02,01,15,18,42.00
2010,02,01,15,19,42.00
2010,02,01,15,20,42.00
2010,02,01,15,21,43.20
2010,02,01,15,22,44.00
2010,02,01,15,23,44.00
2010,02,01,15,24,44.00
2010,02,01,15,25,44.40
2010,02,01,15,26,45.40
2010,02,01,15,27,44.00
2010,02,01,15,28,42.70
2010,02,01,15,29,40.50
2010,02,01,15,30,40.00
2010,02,01,15,31,40.00
2010,02,01,15,32,39.80
2010,02,01,15,33,39.00
2010,02,01,15,34,39.00
2010,02,01,15,35,39.60
2010,02,01,15,36,40.00
2010,02,01,15,37,40.00
2010,02,01,15,38,40.00
2010,02,01,15,39,40.00
2010,02,01,15,40,40.00
2010,02,01,15,41,40.90
2010,02,01,15,42,40.90
2010,02,01,15,43,39.30
2010,02,01,15,44,37.30
2010,02,01,15,45,37.00
2010,02,01,15,46,37.00
2010,02,01,15,47,37.00
2010,02,01,15,48,36.10
2010,02,01,15,49,35.00
2010,02,01,15,50,35.00
2010,02,01,15,51,35.00
2010,02,01,15,52,36.80
2010,02,01,15,53,37.40
2010,02,01,15,54,39.00
2010,02,01,15,55,39.40
2010,02,01,15,56,40.00
2010,02,01,15,57,40.00
2010,02,01,15,58,39.20
2010,02,01,15,59,34.80
2010,02,01,16,00,32.80
2010,02,01,16,01,31.40
2010,02,01,16,02,29.10
2010,02,01,16,03,26.80
2010,02,01,16,04,26.00
2010,02,01,16,05,25.10
2010,02,01,16,06,22.80
2010,02,01,16,07,21.00
2010,02,01,16,08,21.00
2010,02,01,16,09,21.00
2010,02,01,16,10,19.80
2010,02,01,16,11,19.00
2010,02,01,16,12,19.00
2010,02,01,16,13,18.00
2010,02,01,16,14,17.60
2010,02,01,16,15,16.00
2010,02,01,16,16,15.10
2010,02,01,16,17,12.80
2010,02,01,16,18,12.00
2010,02,01,16,19,12.00
2010,02,01,16,20,12.00
2010,02,01,16,21,12.00
2010,02,01,16,22,12.00
2010,02,01,16,23,12.00
2010,02,01,16,24,12.00
2010,02,01,16,25,11.30
2010,02,01,16,26,11.00
2010,02,01,16,27,11.00
2010,02,01,16,28,10.60
2010,02,01,16,29,9.00
2010,02,01,16,30,9.00
2010,02,01,16,31,9.00
2010,02,01,16,32,7.60
2010,02,01,16,33,7.00
2010,02,01,16,34,7.00
2010,02,01,16,35,7.00
2010,02,01,16,36,7.00
2010,02,01,16,37,7.00
2010,02,01,16,38,7.00
2010,02,01,16,39,7.00
2010,02,01,16,40,7.00
2010,02,01,16,41,6.80
2010,02,01,16,42,5.00
2010,02,01,16,43,5.00
2010,02,01,16,44,5.00
2010,02,01,16,45,5.00
2010,02,01,16,46,5.00
2010,02,01,16,47,5.00
2010,02,01,16,48,5.00
2010,02,01,16,49,5.00
2010,02,01,16,50,5.00
2010,02,01,16,51,5.00
2010,02,01,16,52,5.00
2010,02,01,16,53,5.00
2010,02,01,16,54,5.00
2010,02,01,16,55,5.00
2010,02,01,16,56,5.00
2010,02,01,16,57,3.40
2010,02,01,16,58,0.00
2010,02,01,16,59,0.00
2010,02,01,17,00,0.00
2010,02,01,17,01,0.00
2010,02,01,17,02,0.00
2010,02,01,17,03,0.00
2010,02,01,17,04,0.00
2010,02,01,17,05,0.00
2010,02,01,17,06,0.00
2010,02,01,17,07,0.00
2010,02,01,17,08,0.00
2010,02,01,17,09,0.00
2010,02,01,17,10,0.00
2010,02,01,17,11,0.00
2010,02,01,17,12,0.00
2010,02,01,17,13,0.00
2010,02,01,17,14,0.00
2010,02,01,17,15,0.00
2010,02,01,17,16,0.00
2010,02,01,17,17,0.00
2010,02,01,17,18,0.00
2010,02,01,17,19,0.00
2010,02,01,17,20,0.00
2010,02,01,17,21,0.00
2010,02,01,17,22,0.00
2010,02,01,17,23,0.00
2010,02,01,17,24,0.00
2010,02,01,17,25,0.00
2010,02,01,17,26,0.00
2010,02,01,17,27,0.00
2010,02,01,17,28,0.00
2010,02,01,17,29,0.00
2010,02,01,17,30,0.00
2010,02,01,17,31,0.00
2010,02,01,17,32,0.00
2010,02,01,17,33,0.00
2010,02,01,17,34,0.00